Date String (YYYY-MM-DD hh:mm:ss) UTC,Instrument flags,Ambient pressure (hPa),Sample flow (lpm),Bypass flow (lpm),Sample temperature (°C),Ambient temperature (°C),ASC tube jacket temperature (°C),LED temperature (°C),Box temperature (°C),Sample RH (%),Span deviation,Mass concentration (μg/m³),Mass concentration (μg/m³),Mass concentration (μg/m³)
DateTimeUTC,F1_M11,P_M11,Q1_M11,Q2_M11,T1_M11,T2_M11,T3_M11,T4_M11,T5_M11,U1_M11,ZSPAN_M11,X0_M11,X2_M11,X1_M11
2022-08-14 04:00:00,,0831.0,5.00,0.00,29.2,27.9,00.0,38.0,31.1,32.7,0000.0,0008.75,0005.11,0004.28
2022-08-14 04:01:00,,0831.0,5.00,0.00,29.2,28.0,00.0,38.0,31.2,37.1,0000.0,0009.00,0005.11,0004.28
2022-08-14 04:02:00,,0831.0,5.00,0.00,29.4,28.1,00.0,38.0,31.3,37.0,0000.0,0009.32,0005.11,0004.27
2022-08-14 04:03:00,,0831.0,5.00,0.00,29.8,28.2,00.0,38.0,31.5,34.2,0000.0,0009.42,0005.08,0004.25
2022-08-14 04:04:00,,0831.0,5.01,0.00,30.1,28.3,00.0,38.0,31.5,34.2,0000.0,0009.81,0005.08,0004.23
2022-08-14 04:05:00,,0830.9,5.00,0.00,30.2,28.3,00.0,38.1,31.6,34.7,0000.0,0010.14,0005.05,0004.21
2022-08-14 04:06:00,,0831.0,5.00,0.00,30.3,28.4,00.0,38.2,31.6,33.2,0000.0,0010.18,0005.02,0004.17
2022-08-14 04:07:00,,0831.0,5.01,0.00,30.4,28.5,00.0,38.3,31.6,32.5,0000.0,0010.15,0004.97,0004.13
2022-08-14 04:08:00,,0831.0,5.00,0.00,30.5,28.4,00.0,38.3,31.5,33.5,0000.0,0010.13,0004.94,0004.10
2022-08-14 04:09:00,,0831.0,5.00,0.00,30.5,27.8,00.0,38.3,31.4,35.0,0000.0,0010.22,0004.95,0004.07
2022-08-14 04:10:00,,0831.0,4.98,0.00,30.5,27.4,00.0,38.4,31.4,35.4,0000.0,0010.31,0004.97,0004.05
2022-08-14 04:11:00,,0830.9,4.99,0.00,30.7,27.3,00.0,38.4,31.4,35.7,0000.0,0010.28,0004.97,0004.04
2022-08-14 04:12:00,,0831.0,5.01,0.00,30.9,27.4,00.0,38.5,31.6,34.0,0000.0,0010.09,0004.92,0004.01
2022-08-14 04:13:00,,0830.9,4.99,0.00,31.1,27.5,00.0,38.5,31.6,33.3,0000.0,0009.79,0004.87,0003.97
2022-08-14 04:14:00,,0830.9,4.99,0.00,31.2,27.6,00.0,38.6,31.6,33.4,0000.0,0009.78,0004.85,0003.95
2022-08-14 04:15:00,,0830.9,5.00,0.00,31.2,27.8,00.0,38.7,31.6,30.7,0000.0,0009.36,0004.80,0003.93
2022-08-14 04:16:00,,0831.0,4.99,0.00,31.2,27.9,00.0,38.8,31.6,31.2,0000.0,0008.91,0004.76,0003.90
2022-08-14 04:17:00,,0830.9,5.00,0.00,31.2,28.0,00.0,38.8,31.6,31.5,0000.0,0008.87,0004.76,0003.89
2022-08-14 04:18:00,,0830.9,5.01,0.00,31.2,28.1,00.0,38.9,31.7,33.3,0000.0,0008.88,0004.79,0003.88
2022-08-14 04:19:00,,0830.8,5.00,0.00,31.1,28.3,00.0,39.0,31.7,34.4,0000.0,0008.77,0004.74,0003.88
2022-08-14 04:20:00,,0830.8,4.99,0.00,31.1,28.4,00.0,39.0,31.7,34.3,0000.0,0008.69,0004.71,0003.87
2022-08-14 04:21:00,,0830.8,5.00,0.00,31.1,28.4,00.0,39.1,31.7,34.0,0000.0,0008.49,0004.64,0003.86
2022-08-14 04:22:00,,0830.8,4.99,0.00,31.1,28.5,00.0,39.1,31.8,33.1,0000.0,0008.40,0004.61,0003.84
2022-08-14 04:23:00,,0830.8,5.00,0.00,31.0,28.6,00.0,39.2,31.9,33.0,0000.0,0008.30,0004.59,0003.83
2022-08-14 04:24:00,,0830.8,5.00,0.00,31.0,28.7,00.0,39.2,31.9,33.0,0000.0,0008.23,0004.59,0003.84
2022-08-14 04:25:00,,0830.8,5.01,0.00,31.0,28.6,00.0,39.2,31.8,33.4,0000.0,0008.13,0004.59,0003.84
2022-08-14 04:26:00,,0830.8,4.99,0.00,30.9,27.9,00.0,39.2,31.6,33.3,0000.0,0008.09,0004.61,0003.84
2022-08-14 04:27:00,,0830.7,5.01,0.00,30.8,27.6,00.0,39.1,31.5,33.4,0000.0,0008.13,0004.61,0003.85
2022-08-14 04:28:00,,0830.7,4.99,0.00,30.7,27.5,00.0,39.1,31.4,33.8,0000.0,0008.06,0004.55,0003.84
2022-08-14 04:29:00,,0830.6,5.01,0.00,30.6,27.5,00.0,39.1,31.4,34.2,0000.0,0008.33,0004.47,0003.83
2022-08-14 04:30:00,,0830.6,4.99,0.00,30.5,27.6,00.0,39.1,31.4,34.3,0000.0,0008.58,0004.45,0003.82
2022-08-14 04:31:00,,0830.6,4.99,0.00,30.5,27.7,00.0,39.0,31.5,33.9,0000.0,0008.73,0004.45,0003.80
2022-08-14 04:32:00,,0830.5,5.01,0.00,30.4,27.9,00.0,39.0,31.5,33.6,0000.0,0008.90,0004.43,0003.78
2022-08-14 04:33:00,,0830.5,5.00,0.00,30.4,28.0,00.0,39.0,31.5,33.6,0000.0,0008.91,0004.41,0003.78
2022-08-14 04:34:00,,0830.5,5.01,0.00,30.4,28.1,00.0,39.0,31.6,33.0,0000.0,0008.85,0004.38,0003.76
2022-08-14 04:35:00,,0830.5,5.00,0.00,30.4,28.2,00.0,39.0,31.6,33.1,0000.0,0008.92,0004.37,0003.74
2022-08-14 04:36:00,,0830.4,5.00,0.00,30.4,28.3,00.0,39.0,31.6,32.9,0000.0,0009.13,0004.36,0003.74
2022-08-14 04:37:00,,0830.4,5.00,0.00,30.3,28.4,00.0,38.9,31.6,32.7,0000.0,0009.18,0004.35,0003.73
2022-08-14 04:38:00,,0830.4,4.99,0.00,30.3,28.4,00.0,38.9,31.7,33.5,0000.0,0009.13,0004.32,0003.71
2022-08-14 04:39:00,,0830.4,4.99,0.00,30.3,28.5,00.0,38.9,31.7,34.2,0000.0,0009.10,0004.34,0003.71
2022-08-14 04:40:00,,0830.4,5.01,0.00,30.3,28.6,00.0,38.9,31.7,35.2,0000.0,0009.00,0004.36,0003.72
2022-08-14 04:41:00,,0830.4,4.99,0.00,30.5,28.6,00.0,38.9,31.8,34.8,0000.0,0009.33,0004.39,0003.72
2022-08-14 04:42:00,,0830.4,4.99,0.00,30.7,28.7,00.0,38.9,32.0,33.1,0000.0,0009.12,0004.35,0003.71
2022-08-14 04:43:00,,0830.4,4.99,0.00,30.8,28.7,00.0,38.9,32.0,32.3,0000.0,0008.95,0004.36,0003.71
2022-08-14 04:44:00,,0830.3,5.00,0.00,30.9,28.1,00.0,38.9,31.7,32.7,0000.0,0008.82,0004.33,0003.71
2022-08-14 04:45:00,,0830.3,5.01,0.00,30.8,27.6,00.0,38.9,31.6,32.1,0000.0,0008.76,0004.30,0003.70
2022-08-14 04:46:00,,0830.3,5.00,0.00,30.7,27.5,00.0,38.9,31.5,32.1,0000.0,0008.69,0004.28,0003.68
2022-08-14 04:47:00,,0830.3,4.99,0.00,30.6,27.5,00.0,38.9,31.4,32.8,0000.0,0008.41,0004.27,0003.68
2022-08-14 04:48:00,,0830.3,5.00,0.00,30.6,27.6,00.0,38.9,31.5,33.0,0000.0,0008.45,0004.26,0003.68
2022-08-14 04:49:00,,0830.2,5.00,0.00,30.5,27.7,00.0,38.9,31.5,32.6,0000.0,0008.50,0004.26,0003.67
2022-08-14 04:50:00,,0830.2,5.01,0.00,30.5,27.8,00.0,38.9,31.5,33.3,0000.0,0008.51,0004.25,0003.67
2022-08-14 04:51:00,,0830.1,5.00,0.00,30.5,28.0,00.0,38.9,31.5,33.3,0000.0,0008.49,0004.26,0003.66
2022-08-14 04:52:00,,0830.1,4.99,0.00,30.4,28.1,00.0,38.9,31.6,33.4,0000.0,0007.76,0004.26,0003.65
2022-08-14 04:53:00,,0830.1,5.01,0.00,30.4,28.2,00.0,38.9,31.6,33.1,0000.0,0007.73,0004.26,0003.65
2022-08-14 04:54:00,,0830.1,5.00,0.00,30.4,28.3,00.0,38.9,31.6,33.2,0000.0,0007.57,0004.22,0003.65
2022-08-14 04:55:00,,0830.1,4.99,0.00,30.4,28.4,00.0,38.9,31.6,33.1,0000.0,0007.62,0004.23,0003.65
2022-08-14 04:56:00,,0830.1,5.00,0.00,30.4,28.4,00.0,38.9,31.7,33.1,0000.0,0007.74,0004.26,0003.65
2022-08-14 04:57:00,,0830.0,5.01,0.00,30.3,28.5,00.0,38.9,31.7,32.6,0000.0,0007.77,0004.28,0003.65
2022-08-14 04:58:00,,0830.0,5.00,0.00,30.3,28.6,00.0,38.9,31.7,32.3,0000.0,0007.78,0004.28,0003.65
2022-08-14 04:59:00,,0830.0,5.00,0.00,30.3,28.6,00.0,38.9,31.7,32.8,0000.0,0007.72,0004.28,0003.65
